Wind_Speed
8 9 11 11 8 6 8 11 12 11 9 8 8 9 11 12 12 14 15 16 15 14 12 15 17 20 23 24 22 19 13 10 13 17 21 24 24 25 26 25 23 21 20 18 18 17 17 17 16 15 13 12 10 10 11 13 13 13 13 13 14 16 17 19 17 11 10 9 9 9 8 7 7 7 8 8 9 10 11 12 13 14 15 18 21 24
8 10 10 7 4 4 6 7 10 10 9 8 9 10 13 13 14 15 14 13 13 11 9 11 14 19 22 23 22 18 14 10 10 12 14 19 24 25 25 24 23 22 21 20 19 19 18 19 19 18 15 13 11 10 11 13 14 14 14 13 14 16 17 19 18 11 9 9 9 9 8 7 7 7 7 8 8 9 9 10 10 10 12 14 17 20
10 9 5 3 3 4 4 5 8 9 8 8 9 10 12 13 13 14 11 9 7 7 8 10 13 17 20 21 20 18 16 13 12 14 15 19 23 24 24 23 23 23 22 21 21 21 21 21 21 19 16 14 12 11 13 14 14 14 14 13 14 16 16 18 18 12 9 9 9 8 7 7 6 6 6 6 7 8 9 9 9 9 9 11 13 16
10 4 3 2 4 5 7 7 7 7 7 8 9 11 13 14 14 13 12 11 8 8 9 10 13 16 17 18 19 19 20 19 17 17 19 22 25 25 25 24 24 24 23 22 22 22 23 23 22 19 17 16 14 13 14 14 14 14 14 13 13 16 16 17 19 13 10 10 9 8 7 6 4 3 3 3 4 4 6 7 7 8 9 9 11 12
12 6 3 7 7 8 10 11 11 11 11 11 12 14 15 15 14 14 14 13 10 11 13 14 15 17 18 18 18 18 20 21 20 20 22 25 27 27 27 27 27 26 24 23 23 24 25 25 22 19 18 17 15 14 14 14 15 14 12 13 14 15 16 17 19 16 12 10 8 7 6 4 2 1 0 1 1 0 2 3 5 6 7 8 10 11
14 11 10 12 12 12 13 14 14 15 15 16 16 15 15 15 14 13 11 9 8 9 11 13 11 12 17 16 16 17 18 18 20 22 24 26 27 28 30 31 31 30 27 25 24 24 25 24 20 18 18 17 17 15 15 15 15 14 13 13 15 15 15 17 19 18 13 10 8 8 6 3 1 0 1 2 2 1 1 1 2 3 4 6 7 9
13 12 11 12 14 14 15 16 16 16 17 17 16 14 13 13 13 11 9 7 7 6 7 9 7 8 15 17 16 18 18 18 20 23 26 27 26 28 32 32 31 31 30 28 26 25 25 23 20 19 18 16 15 15 14 15 14 14 15 14 14 15 15 17 19 18 14 11 9 8 7 4 2 1 1 1 1 2 4 3 3 2 2 3 4 6
11 11 10 12 14 14 15 16 16 16 17 16 14 10 8 8 8 8 7 5 5 5 4 7 10 11 15 19 19 20 22 22 23 23 25 26 24 26 30 28 25 24 28 29 27 26 26 23 20 18 16 14 13 12 12 13 14 15 15 14 13 14 15 16 17 18 15 11 10 9 7 6 4 3 3 2 3 5 7 7 7 5 4 3 3 3
13 11 8 9 11 11 12 14 14 15 15 14 12 9 7 7 8 8 7 5 4 4 4 6 9 8 10 17 21 22 23 21 20 17 17 20 20 23 27 26 21 19 23 27 26 25 23 20 19 17 14 13 12 11 10 11 12 14 15 14 14 15 15 15 16 17 15 12 11 9 8 7 6 6 6 5 6 8 9 9 10 9 8 7 6 6
16 13 9 8 8 8 9 11 12 13 12 12 11 11 10 10 10 8 6 6 4 3 6 8 8 4 8 16 13 10 13 13 13 13 12 13 14 18 23 23 23 22 22 24 24 24 21 17 16 14 13 13 12 10 9 9 10 13 15 16 15 15 15 15 16 17 15 13 11 10 9 8 8 8 8 8 9 10 12 12 12 12 12 11 10 10
19 16 12 9 8 9 10 10 11 11 11 11 11 12 11 10 11 10 8 7 4 4 7 9 6 1 4 9 4 5 11 14 15 14 11 10 7 11 18 19 21 23 22 21 21 24 24 19 16 14 14 14 13 11 9 9 10 12 15 16 16 16 16 16 17 17 15 13 11 11 10 10 10 10 10 11 11 13 15 15 14 14 13 12 12 12
17 19 16 12 10 10 10 11 13 13 12 10 11 11 9 7 8 9 9 8 4 4 7 7 4 1 3 8 9 13 14 15 16 15 12 10 6 5 9 12 17 21 22 21 18 21 25 22 18 17 15 15 15 13 11 10 10 11 14 15 16 17 17 16 16 16 14 12 11 12 12 11 11 11 12 12 13 15 16 16 15 14 13 13 12 13
11 15 17 15 15 14 13 14 15 15 13 11 11 10 6 2 2 4 5 4 4 6 7 7 3 2 10 15 14 13 14 17 18 15 13 11 8 6 5 9 15 19 22 21 18 18 22 21 20 19 16 14 13 12 12 11 10 9 11 12 13 14 14 14 14 14 14 13 12 12 12 12 12 13 13 13 14 15 16 15 14 13 13 13 12 13
7 8 11 14 15 15 15 16 16 14 13 12 13 13 7 2 2 2 3 1 3 7 7 6 4 5 10 11 12 14 18 21 17 13 12 10 8 10 10 10 13 17 21 22 19 17 17 17 17 17 16 14 11 10 10 10 9 8 9 10 9 10 11 11 11 12 12 13 13 12 13 13 13 13 13 13 14 15 14 14 13 13 13 13 12 12
5 5 6 9 8 9 12 14 14 13 12 12 13 14 12 9 4 3 3 2 4 4 3 4 3 2 4 7 15 19 19 16 14 14 14 13 11 10 10 12 13 15 17 21 22 20 17 15 14 13 14 14 11 9 9 9 9 9 8 9 9 9 9 10 10 10 10 11 12 12 13 13 13 13 13 13 14 14 13 12 12 12 12 12 11 11
9 9 9 10 10 9 10 11 11 12 11 10 12 12 13 14 11 7 4 4 4 2 1 4 5 7 8 10 13 13 11 10 13 16 17 17 17 13 9 11 14 15 15 17 21 21 20 17 12 10 11 11 10 9 9 9 10 9 8 8 9 9 10 10 10 10 10 10 11 11 12 13 13 12 11 13 13 13 12 12 12 12 11 11 11 11
8 11 12 13 14 13 13 11 10 11 10 7 9 10 9 10 9 6 4 2 1 1 2 5 6 10 9 5 4 5 8 9 11 14 14 14 18 16 13 12 12 14 14 15 18 20 21 20 15 11 11 12 11 10 9 9 9 8 8 7 7 9 11 12 12 11 11 11 10 10 11 13 13 12 11 12 13 12 11 12 12 12 12 12 12 11
11 13 14 13 13 12 12 11 10 10 10 9 9 8 8 7 6 5 2 1 2 0 3 5 8 10 7 2 2 5 6 5 4 4 3 7 11 13 14 13 13 14 15 16 18 20 22 21 18 14 13 14 14 14 13 11 9 9 9 8 8 9 11 13 13 12 12 12 11 11 11 12 13 12 12 13 13 12 11 12 13 14 14 13 13 13
13 15 16 16 16 12 11 12 10 8 8 10 10 8 8 6 4 4 2 1 0 1 2 5 8 11 11 7 7 5 4 4 6 7 7 7 8 8 7 7 7 10 14 17 19 20 20 21 20 18 17 16 16 16 15 13 12 12 12 12 11 11 12 14 15 15 14 14 13 12 12 13 13 13 13 13 13 13 12 13 14 15 15 15 15 15
13 14 13 15 18 16 13 14 14 11 9 8 8 7 7 4 2 3 2 1 3 2 2 3 4 7 9 8 10 9 9 9 9 9 9 8 8 9 8 6 5 6 9 12 14 17 18 20 22 22 21 20 19 18 17 16 16 16 15 15 14 13 14 15 17 18 17 16 15 14 13 13 14 14 14 14 15 14 14 14 15 16 17 18 18 18
10 13 11 11 15 14 11 11 13 13 11 10 9 8 8 7 4 5 6 5 4 3 2 2 3 5 9 11 10 10 10 10 8 6 7 7 6 7 7 9 11 11 11 12 12 14 16 18 21 22 23 23 22 22 21 20 19 19 19 18 17 18 17 17 17 19 19 18 17 17 16 15 15 15 15 15 15 15 15 15 16 18 19 20 21 21
7 10 11 11 13 11 8 9 11 12 12 13 15 15 15 14 9 4 5 6 7 7 4 3 2 5 13 14 9 9 8 7 6 5 4 5 5 5 4 6 8 11 13 14 14 14 14 13 14 15 17 19 20 21 22 22 21 22 23 22 22 22 21 20 20 21 21 20 20 19 19 18 17 17 17 17 17 16 16 16 17 19 20 21 23 23
11 11 11 12 14 12 9 9 11 10 10 11 13 14 14 15 11 6 4 5 8 10 7 3 3 5 15 15 8 6 5 5 7 8 8 8 7 6 4 4 4 5 8 10 13 14 15 14 13 13 14 14 14 16 19 22 24 25 24 24 25 25 24 24 24 25 25 24 22 22 22 21 20 20 19 19 19 18 17 18 19 20 20 22 23 24
10 9 9 10 12 14 14 14 14 13 12 11 10 9 9 10 10 9 8 7 8 11 9 4 1 7 19 17 7 4 6 8 11 14 15 16 14 12 10 10 9 9 9 10 12 14 17 18 18 19 20 18 15 14 16 18 20 23 24 25 26 26 26 27 27 27 28 28 27 26 26 25 23 23 23 21 21 22 22 21 22 22 21 22 23 24
10 9 8 6 5 8 10 12 14 15 14 13 11 9 8 8 8 9 10 8 8 11 12 9 4 10 22 18 7 7 10 11 13 16 17 18 19 19 19 18 17 17 16 17 17 18 19 19 18 19 21 21 21 22 23 22 21 22 23 25 27 27 27 27 28 28 27 28 29 29 30 30 26 24 25 25 24 25 26 26 25 25 24 23 23 24
15 13 11 8 5 5 6 8 13 17 17 17 15 13 12 9 9 9 8 7 7 7 12 14 9 10 19 16 12 13 16 18 16 15 16 16 17 20 22 23 23 23 22 21 22 22 23 22 22 22 21 22 23 25 27 27 26 24 23 24 26 28 28 28 29 29 28 27 28 28 30 32 31 28 27 27 28 29 29 28 28 28 27 26 25 25
15 15 13 12 12 12 13 15 17 19 20 21 19 18 16 14 14 14 11 12 12 10 15 21 18 15 19 20 21 20 21 22 20 18 18 18 19 20 22 23 25 25 25 25 25 26 27 27 28 29 29 29 28 28 28 29 30 31 29 28 27 27 28 28 28 30 30 28 28 28 28 29 30 30 31 30 31 33 32 31 30 31 30 29 27 26
16 16 15 16 17 16 16 15 15 16 19 20 20 20 19 18 20 20 18 19 17 13 20 27 25 25 28 27 25 23 22 21 21 20 21 21 21 21 22 23 23 24 25 26 27 28 30 32 33 34 34 34 33 31 30 30 31 32 33 33 32 31 31 29 28 30 31 30 29 28 29 31 31 31 32 33 34 35 35 34 34 34 32 31 29 28
16 17 17 17 18 18 16 15 15 16 18 20 20 20 19 18 20 21 21 21 18 16 23 27 24 26 28 26 24 25 23 22 22 21 21 21 21 21 21 21 21 23 25 27 29 31 32 34 35 35 35 34 34 33 32 31 30 31 31 32 33 35 36 35 33 32 32 33 33 34 38 40 38 36 35 34 37 40 39 38 37 36 34 31 30 30
14 14 13 14 16 17 18 18 19 19 20 22 22 22 21 20 20 21 22 22 21 23 27 27 24 25 25 23 23 22 22 23 22 20 19 18 18 18 19 20 21 23 24 26 28 29 30 31 32 33 33 32 32 32 31 31 29 29 30 30 30 33 35 37 38 37 36 36 35 37 39 38 40 44 43 38 40 44 44 43 41 38 35 33 32 32
17 15 13 14 18 20 20 18 17 17 19 22 23 22 21 21 21 23 25 25 25 28 28 26 25 25 22 21 22 20 19 20 19 17 16 16 17 18 19 21 22 23 25 26 27 27 28 30 30 31 32 32 32 32 30 29 29 30 31 31 31 31 33 35 36 36 37 38 36 36 36 35 40 48 48 44 44 46 46 46 44 41 38 35 33 33
24 23 22 19 20 25 25 20 18 20 21 25 28 26 24 24 24 26 27 27 27 28 26 25 26 26 23 21 21 19 17 16 15 14 15 16 18 20 21 23 24 26 28 29 30 31 32 33 34 34 33 33 32 31 30 30 29 31 33 35 35 33 33 33 33 32 33 35 37 39 38 37 41 47 47 47 47 43 42 44 44 43 39 35 33 32
29 28 29 24 21 28 31 24 23 23 21 26 34 31 26 25 26 27 28 29 29 28 27 26 27 26 22 19 18 17 16 16 15 16 17 19 21 22 24 26 28 29 31 32 33 35 35 36 35 34 34 33 31 31 31 30 30 31 33 36 38 38 37 36 34 33 33 33 35 36 37 37 39 42 42 45 48 44 41 41 41 41 39 36 34 32
29 28 30 26 23 30 32 24 18 15 13 19 25 22 19 21 22 23 25 28 29 29 27 26 24 23 21 19 18 18 19 19 19 20 21 21 22 24 25 27 29 30 31 32 33 34 35 35 35 35 34 33 33 32 31 31 32 33 33 35 38 40 41 41 40 37 36 36 34 32 33 34 35 37 39 44 51 50 45 43 41 40 38 36 33 32
21 22 25 25 23 26 27 18 10 9 15 21 20 17 17 19 18 18 20 22 25 25 24 23 23 23 23 24 23 22 21 21 21 21 21 22 23 25 26 26 27 28 29 30 31 32 33 34 34 35 34 33 33 33 31 31 33 34 35 36 38 39 40 42 44 43 41 40 38 35 35 34 34 37 41 45 51 51 49 48 44 39 36 34 32 30
12 12 17 22 22 19 17 13 10 13 20 21 17 15 16 16 16 18 21 22 24 25 26 27 27 27 28 28 26 23 21 22 23 22 22 23 25 26 27 26 26 27 27 28 30 30 31 33 34 35 35 34 33 32 31 30 31 34 36 36 38 40 40 41 43 44 45 45 43 41 39 37 37 39 41 45 50 50 49 48 42 36 33 31 29 29
9 9 11 16 18 17 17 16 17 21 22 19 17 16 17 17 18 20 22 23 24 26 27 27 27 26 27 26 24 23 23 25 26 23 22 23 24 25 25 25 26 27 28 29 31 32 34 34 35 35 35 35 34 33 31 30 31 33 35 35 36 38 41 42 42 43 44 45 45 43 41 39 40 41 41 46 51 49 45 41 34 29 28 27 27 29
9 9 9 11 13 16 18 16 12 12 12 13 15 17 18 19 20 22 24 23 23 23 22 22 22 22 22 22 22 23 24 26 28 24 21 21 22 24 26 27 28 30 31 33 35 36 37 37 38 37 36 36 35 33 33 32 32 33 34 33 33 35 38 41 41 41 42 42 43 42 39 38 38 37 38 43 44 41 37 31 23 22 23 25 27 29
11 9 7 7 9 14 16 13 8 7 8 9 11 12 15 17 18 19 18 17 20 19 15 15 16 17 18 19 20 21 22 26 30 26 21 21 24 27 30 31 32 33 34 35 36 37 38 39 40 40 39 38 36 34 34 35 35 35 35 33 33 34 36 38 39 39 39 38 38 37 36 34 32 32 37 42 41 37 31 24 19 21 22 23 26 27
12 10 8 6 7 11 14 14 12 11 11 11 11 12 15 16 16 15 9 9 16 16 11 11 13 14 16 18 19 21 22 25 29 27 25 26 29 31 34 35 36 37 37 37 38 38 39 40 41 41 41 39 37 35 36 37 38 39 38 36 35 35 35 36 36 36 36 36 35 33 31 29 29 31 37 41 40 33 25 20 19 20 21 22 25 27
17 14 11 7 6 7 10 12 13 13 13 15 15 13 14 13 10 9 7 8 13 13 10 11 12 14 17 19 20 23 24 25 29 30 30 31 33 35 37 38 39 39 39 39 38 39 40 40 41 42 42 40 38 36 36 38 40 40 39 38 38 36 35 35 35 35 36 35 34 31 28 27 29 33 36 37 34 26 19 18 18 19 20 23 25 27
16 14 11 9 9 10 10 10 11 10 11 12 10 9 10 9 6 8 10 10 11 12 14 15 16 18 20 22 23 26 28 29 31 33 34 35 37 38 39 40 40 40 38 37 37 37 38 39 39 41 42 41 40 38 37 38 39 40 39 39 38 36 34 35 36 36 36 35 33 31 29 29 31 34 36 36 31 24 20 19 17 18 20 22 23 24
14 15 15 13 12 11 11 9 7 7 8 8 7 8 11 11 9 12 14 15 17 19 21 21 22 23 25 27 29 30 32 34 34 35 37 38 38 38 40 40 39 38 37 36 36 36 37 38 38 38 40 40 40 40 39 39 39 39 39 39 36 34 34 35 36 36 35 34 33 31 30 31 34 37 37 34 27 21 18 16 14 16 18 19 21 22
16 16 15 13 10 8 8 6 4 4 7 12 16 19 20 20 18 20 21 21 22 23 24 25 25 25 26 29 30 31 33 34 33 34 35 36 36 36 37 36 35 35 35 35 35 36 38 39 38 38 38 38 38 38 38 38 38 38 39 37 34 32 33 35 36 35 34 32 31 31 33 36 37 37 34 28 21 16 14 12 13 14 16 18 19 20
15 14 15 18 19 19 19 19 17 16 19 24 26 24 23 23 23 22 22 23 24 24 25 26 26 26 26 28 29 31 32 31 31 30 31 33 33 33 33 32 32 33 34 34 35 37 38 39 38 38 38 37 35 36 37 37 37 37 37 35 32 32 34 35 35 34 32 31 31 35 38 37 33 29 24 18 14 12 12 11 12 14 15 17 18 20
20 20 23 25 27 27 28 28 26 24 23 24 23 22 23 24 24 23 24 24 24 25 25 26 27 27 27 28 30 31 31 31 31 30 30 31 32 33 33 33 33 34 34 35 37 39 40 40 39 38 38 36 34 34 36 36 36 36 35 34 33 34 36 35 33 33 32 30 32 36 36 33 27 21 17 14 13 13 12 11 11 12 14 16 18 20
22 23 24 24 24 23 23 23 22 21 21 22 24 25 25 24 23 24 25 25 25 25 25 25 26 27 28 29 30 31 31 31 31 32 32 32 34 35 35 36 35 34 35 37 39 41 42 41 39 38 37 35 34 35 36 37 37 37 37 35 35 36 36 33 33 33 30 29 32 34 31 26 20 17 16 15 14 13 11 10 11 13 15 16 18 20
21 22 24 24 25 26 27 26 25 25 26 26 26 26 25 24 24 25 26 26 26 26 25 25 26 27 28 29 30 32 32 31 30 32 34 34 34 36 36 36 35 34 35 37 39 41 42 41 39 36 34 33 32 33 34 32 31 32 33 32 31 32 33 32 31 30 30 34 38 36 28 21 18 18 18 16 14 12 10 10 11 13 15 16 18 20
20 23 24 25 27 29 30 27 26 26 27 25 23 24 25 25 27 28 27 27 27 27 27 27 27 28 29 29 30 32 33 32 30 32 34 34 34 35 35 34 33 33 35 37 38 38 40 38 34 29 27 27 27 26 23 20 20 23 22 19 19 22 25 27 28 30 35 40 41 35 26 21 21 20 17 14 12 9 8 8 10 13 15 17 18 20
20 22 21 23 27 29 28 25 25 28 30 27 25 26 27 27 28 29 28 28 28 28 29 29 29 28 29 29 30 32 33 31 31 32 33 32 32 32 31 30 31 32 34 35 34 33 33 29 24 20 20 20 18 16 13 10 11 14 14 11 12 16 20 25 30 36 40 40 36 30 26 24 22 18 14 11 8 6 6 8 11 14 16 18 19 21
20 21 20 22 25 27 26 24 24 28 31 29 27 28 29 28 29 29 28 28 29 29 29 30 30 30 29 30 30 30 31 31 30 30 30 28 28 28 29 29 31 32 34 33 30 28 27 23 19 17 17 15 12 9 7 7 6 6 9 13 15 17 22 27 32 36 36 32 28 25 23 21 17 13 9 6 4 5 7 10 13 15 17 19 20 22
Wind_Direction
236 246 250 251 252 242 232 230 233 246 263 285 290 287 297 304 305 304 308 312 316 313 283 255 253 251 242 237 240 247 246 247 259 254 242 236 238 243 247 250 253 260 269 274 274 273 271 270 269 269 273 281 291 296 293 295 306 319 328 331 334 334 336 346 345 314 291 287 284 287 284 277 265 255 251 245 243 242 244 245 243 243 242 241 240 236
231 241 242 247 249 222 227 235 230 238 255 280 293 291 294 298 300 304 310 313 315 318 296 270 262 252 241 238 242 247 242 236 247 253 247 239 239 242 246 252 259 265 268 267 265 263 262 265 266 266 269 277 286 289 287 292 301 312 322 323 325 328 330 341 345 323 303 304 296 296 293 281 269 257 253 249 244 243 244 247 244 241 239 239 241 241
241 244 230 203 213 213 234 252 234 239 259 277 285 286 291 296 302 305 307 312 312 298 280 267 255 244 238 239 241 239 238 239 239 242 246 244 243 248 254 259 263 263 262 262 262 260 261 264 266 265 270 277 278 278 280 285 295 309 318 314 314 321 324 337 344 328 310 310 301 297 287 271 264 256 251 247 245 244 244 247 247 244 240 237 238 240
242 211 109 184 231 240 254 263 251 251 264 268 273 281 289 296 301 304 302 299 291 277 272 265 255 246 240 240 240 238 239 242 241 240 243 246 249 255 261 263 264 262 261 261 260 259 261 261 262 265 273 278 274 276 279 280 291 307 313 305 306 316 320 334 342 330 308 308 305 300 284 262 257 255 248 240 237 241 244 244 243 241 240 240 238 237
243 225 291 286 277 269 264 264 255 251 257 261 268 275 283 291 296 300 301 296 281 266 267 272 274 267 255 249 249 250 249 250 249 244 242 246 251 256 259 260 261 262 261 260 259 259 260 259 261 269 277 279 277 278 279 280 291 301 301 297 302 312 317 328 337 329 309 304 308 302 282 254 246 261 186 101 94 92 263 255 249 241 235 236 238 238
256 257 282 287 281 273 266 261 252 248 255 259 264 272 280 290 295 294 291 286 275 259 257 264 277 275 265 261 260 262 263 260 255 249 244 246 251 255 257 259 259 258 256 255 256 259 260 260 263 269 273 277 280 280 278 281 288 288 285 291 301 310 314 321 330 328 312 303 305 298 281 258 225 25 74 85 68 35 304 262 251 247 232 227 231 235
267 269 278 280 281 276 262 259 255 250 253 257 266 277 284 286 287 289 288 278 263 250 250 250 247 265 272 271 270 272 273 268 261 253 246 248 255 259 259 260 261 257 251 248 250 252 252 253 259 265 271 279 285 283 278 276 278 280 281 287 296 304 308 315 325 325 313 303 301 292 279 269 258 305 321 79 31 302 298 297 279 260 240 230 228 231
263 266 273 271 271 269 256 255 257 248 246 256 269 277 282 286 288 294 298 278 243 249 264 246 244 262 274 276 279 280 280 279 276 264 252 252 259 259 257 259 264 260 249 244 246 248 246 248 256 268 280 285 290 291 285 279 279 282 282 280 287 296 302 311 320 320 311 301 297 290 280 276 276 289 296 295 285 286 296 303 302 300 293 283 275 262
258 263 278 274 265 264 255 253 254 246 245 259 269 267 271 290 296 296 290 267 250 261 260 253 255 258 276 287 287 281 279 283 284 280 269 259 253 251 252 253 254 255 249 242 244 247 246 249 259 272 282 282 284 292 295 294 286 279 275 275 279 287 297 307 315 315 308 299 295 291 283 279 278 281 284 282 280 286 295 301 303 303 301 298 292 287
255 259 273 280 276 277 270 256 247 244 253 266 266 259 266 283 289 288 277 264 257 238 252 269 264 242 293 301 297 280 287 299 302 307 296 269 255 252 252 250 247 248 248 244 243 245 243 249 263 270 275 273 273 281 293 298 285 275 272 273 276 281 290 302 310 310 303 295 293 293 288 281 276 276 278 282 286 295 301 302 302 300 298 297 292 287
253 255 260 263 262 266 269 253 238 243 258 266 258 257 270 279 272 267 264 268 270 257 266 272 263 175 317 308 341 348 330 331 326 321 299 268 270 263 251 249 248 245 246 245 243 242 238 240 254 261 263 266 268 273 280 284 283 281 273 269 272 276 284 296 304 305 298 291 288 290 288 282 276 274 276 283 293 300 302 301 300 297 295 292 289 285
255 253 252 253 253 253 255 243 238 245 249 251 250 256 272 264 245 248 257 261 261 272 273 265 263 76 250 271 312 333 335 338 333 330 314 284 282 274 245 242 246 244 245 243 240 240 236 238 248 254 257 264 267 267 269 276 288 291 278 273 275 278 284 293 298 296 293 289 284 283 285 283 276 273 275 283 293 298 299 298 297 295 293 290 286 282
274 257 250 253 258 257 252 245 243 244 243 246 244 243 257 259 225 252 258 249 239 255 261 254 261 280 261 274 306 328 333 334 332 332 326 302 273 260 244 239 245 244 243 240 237 237 237 240 248 252 254 260 264 262 263 270 284 292 284 280 281 282 286 290 290 288 288 289 284 281 282 281 275 272 274 281 290 295 296 296 296 295 293 291 285 280
304 277 250 249 259 258 251 245 243 240 244 254 246 235 227 147 84 279 260 288 272 266 263 249 255 269 263 280 314 322 322 325 325 321 317 314 292 267 252 245 249 246 240 237 235 234 235 240 245 247 248 251 256 259 257 259 267 277 282 283 282 280 281 282 283 285 288 288 284 282 282 281 278 275 275 281 289 294 296 297 298 299 297 294 288 282
282 282 250 242 254 256 248 245 248 252 260 264 250 237 228 215 207 241 233 215 245 271 263 196 197 246 258 311 320 317 319 319 318 315 306 305 310 292 261 252 255 254 244 234 230 231 233 236 239 240 239 241 246 250 250 252 257 267 279 284 280 271 268 270 276 283 288 288 284 283 286 288 287 282 279 284 289 292 296 299 302 303 304 300 293 286
252 261 261 254 250 251 253 249 253 260 262 253 239 233 234 236 238 240 242 236 234 289 280 205 228 270 285 316 321 313 311 302 296 304 301 295 302 306 287 263 252 249 246 235 228 229 229 229 228 225 224 231 242 248 249 247 250 263 277 283 282 271 262 262 268 277 283 284 284 284 287 291 290 288 287 287 288 292 297 301 304 307 310 308 301 290
238 253 263 254 241 239 246 245 244 253 250 230 231 238 239 240 237 230 241 262 239 334 268 235 252 272 279 320 339 297 300 301 290 294 295 286 286 290 289 282 260 245 243 234 225 222 223 222 217 213 218 227 237 245 251 249 249 266 281 288 291 278 263 260 265 272 276 281 283 280 282 289 288 287 288 286 287 292 297 300 304 309 313 314 310 301
250 256 254 237 224 223 228 231 237 249 245 226 229 242 237 228 225 221 210 64 60 261 254 246 254 266 264 214 235 272 284 289 276 269 256 247 253 256 261 267 261 246 235 227 225 224 223 221 214 212 221 232 238 241 245 250 258 277 289 292 296 291 275 267 267 271 275 278 279 275 275 284 286 282 281 284 287 293 297 301 304 307 312 315 313 307
250 253 247 230 226 227 225 234 243 244 239 232 228 231 233 231 230 227 204 103 239 238 268 259 250 262 265 231 201 198 173 158 153 152 163 177 183 190 214 245 257 248 232 226 228 227 225 223 219 218 224 233 240 242 243 247 253 268 282 284 284 291 287 275 267 266 269 271 273 273 272 274 275 273 275 284 290 293 296 299 303 307 311 313 313 310
237 239 247 234 233 241 243 247 247 228 210 209 213 217 223 230 255 255 252 229 215 212 257 270 259 261 253 215 185 173 151 141 138 142 152 153 158 169 183 212 240 252 242 233 231 228 227 229 230 229 231 234 236 238 242 249 254 262 272 275 277 284 287 281 272 265 266 270 273 271 271 272 270 267 270 280 289 294 296 297 301 307 311 313 313 311
237 232 247 237 232 242 244 243 245 234 220 219 233 248 246 248 267 280 277 264 230 212 180 196 271 237 190 172 176 176 160 152 148 141 143 139 145 167 182 208 224 229 228 229 235 236 234 239 243 243 240 237 234 232 236 245 255 262 266 269 273 274 276 281 280 272 268 274 278 276 275 275 270 263 264 273 283 290 293 295 299 303 308 312 313 311
266 250 255 251 246 251 245 237 245 251 252 251 257 262 257 253 254 247 257 250 236 242 217 173 254 194 162 161 173 178 170 171 172 169 174 167 158 161 170 192 208 212 213 218 227 234 238 244 251 253 248 241 235 231 231 236 246 257 264 270 270 266 266 271 276 274 270 272 277 278 277 275 270 263 260 266 275 282 287 288 292 298 303 307 310 311
281 274 269 266 264 263 265 268 269 269 272 267 261 257 250 248 244 218 209 221 223 240 244 230 270 188 175 181 188 190 204 216 213 222 238 240 224 210 216 220 220 222 219 225 231 235 245 255 258 263 268 262 250 241 234 232 239 247 252 257 260 262 265 268 268 268 267 267 267 269 271 270 268 263 258 261 267 270 276 279 281 287 294 300 304 307
278 273 265 262 263 259 259 270 279 282 281 278 263 244 231 238 247 243 241 232 224 235 233 215 240 189 187 192 199 234 247 239 232 234 238 244 245 238 243 256 261 260 256 255 254 249 253 262 265 265 268 269 265 262 260 254 252 253 252 251 251 254 260 266 268 266 266 269 266 262 261 262 263 261 257 258 262 263 265 268 272 277 282 288 294 300
275 269 256 251 263 266 261 261 263 262 265 270 264 250 244 244 242 244 246 236 233 238 226 219 238 196 188 195 223 272 273 264 252 248 243 244 248 250 255 262 264 267 266 264 264 262 260 266 272 270 267 266 265 267 272 272 267 265 264 261 256 252 252 259 264 263 265 273 273 265 259 257 255 255 254 254 255 258 261 262 264 268 272 276 283 290
271 267 259 249 233 235 250 258 260 259 262 268 269 268 268 256 238 244 242 218 218 235 226 228 241 201 191 214 261 275 276 278 275 272 268 261 260 261 262 265 267 270 273 273 274 273 272 273 276 277 275 274 273 271 270 270 268 267 268 266 262 258 251 249 253 256 260 268 273 270 265 260 254 249 249 252 253 255 257 259 260 262 265 268 274 282
263 260 259 258 254 254 261 269 272 271 269 269 269 268 268 266 263 264 253 237 245 262 253 250 257 249 237 256 274 271 270 278 281 284 286 283 277 273 270 271 271 273 278 283 285 286 286 285 284 285 284 283 282 279 274 272 272 270 269 269 268 266 260 250 247 250 254 260 265 266 265 263 262 257 248 246 252 255 254 254 255 257 261 264 269 276
259 259 262 264 267 270 270 269 267 266 266 267 267 267 268 270 271 269 264 263 266 265 261 263 268 268 266 270 275 273 275 283 284 285 287 288 286 284 282 281 282 284 286 288 289 289 289 289 289 290 292 291 291 287 281 278 277 275 273 272 269 269 268 264 257 251 249 251 254 257 257 256 262 268 257 243 246 251 251 251 253 255 258 262 267 272
263 267 271 271 272 272 267 263 263 267 271 271 269 268 267 264 266 268 270 274 271 260 264 270 271 269 272 276 277 276 279 283 285 285 285 286 288 287 287 286 286 287 288 289 290 289 288 289 290 291 293 293 293 290 285 281 279 278 276 273 270 267 266 267 265 261 256 251 250 252 255 253 253 261 262 251 244 245 246 246 248 252 256 260 265 269
273 276 276 275 275 272 268 267 267 266 266 266 264 265 264 260 264 270 273 274 269 264 268 273 273 269 271 276 277 276 277 279 280 282 281 281 282 281 281 282 283 285 287 289 291 291 292 293 294 294 294 293 293 292 287 281 276 272 268 268 268 267 265 265 264 263 260 259 257 256 259 260 254 253 255 251 244 243 243 243 244 247 252 258 263 267
283 283 277 274 275 274 272 272 268 264 266 266 261 257 256 257 262 268 271 270 265 263 267 270 271 271 269 270 274 275 275 274 272 271 269 268 268 270 274 277 281 284 287 289 291 292 294 295 296 296 295 295 294 293 289 281 273 265 260 260 262 264 265 265 266 266 262 259 259 259 259 261 259 255 249 241 241 246 248 250 248 246 248 254 259 265
285 285 283 282 281 276 273 273 272 273 277 275 268 261 256 257 261 264 267 267 263 262 265 266 267 270 271 271 271 270 267 265 262 261 262 265 269 273 278 281 285 287 288 290 291 292 293 294 295 294 292 292 292 289 286 282 274 265 259 257 258 259 261 262 264 267 266 262 259 258 258 259 261 262 254 241 241 252 257 258 255 250 249 253 256 261
287 285 284 285 281 277 280 282 277 275 276 273 269 266 261 260 262 261 259 259 260 261 262 262 264 269 272 271 268 267 266 267 269 273 276 280 284 286 288 289 290 291 292 292 293 293 294 295 295 294 292 291 289 285 281 278 275 272 266 261 258 256 256 258 259 261 263 264 262 260 259 258 260 267 263 245 240 249 256 257 255 252 251 251 252 259
288 283 282 280 271 275 283 283 272 264 255 260 268 271 271 270 266 260 256 254 255 256 256 258 262 265 268 271 273 273 274 277 281 285 289 293 296 297 298 297 298 298 298 298 298 298 298 297 296 295 293 291 289 286 281 276 273 272 271 268 265 260 257 256 257 259 260 262 263 263 261 261 260 264 262 248 240 244 250 252 251 248 245 246 249 257
287 281 278 271 260 268 276 267 246 245 246 255 268 274 270 267 260 255 253 249 246 248 252 257 263 268 273 278 279 278 278 281 286 291 297 302 303 303 303 302 303 303 302 302 301 300 300 299 297 295 293 291 289 287 283 278 273 270 268 268 267 265 262 258 257 259 260 261 264 264 263 266 265 263 258 248 241 241 245 247 246 240 239 243 250 256
297 288 278 267 256 258 258 232 218 252 259 261 265 257 245 238 238 246 251 250 249 252 256 259 263 268 273 274 275 277 281 285 288 293 299 303 303 302 301 301 302 303 303 303 302 301 300 299 297 295 292 290 287 285 282 278 274 270 268 266 264 263 263 261 259 260 261 262 264 264 265 266 268 270 267 252 241 240 240 239 237 233 237 245 251 256
302 301 286 267 254 248 245 237 241 258 268 266 254 239 231 230 236 247 252 254 256 255 254 256 258 260 262 264 268 276 282 285 286 290 297 300 299 297 297 299 300 301 302 303 302 301 300 298 296 295 292 289 286 282 279 275 272 269 267 265 264 262 260 259 259 259 261 263 264 266 268 266 265 271 270 251 238 235 233 229 228 232 240 249 254 259
294 300 292 269 254 246 245 248 252 257 268 264 247 237 240 246 249 252 253 251 250 250 249 248 250 252 256 262 268 274 279 280 280 286 293 293 292 294 296 298 300 300 301 301 299 298 296 295 293 292 291 289 285 279 275 271 269 267 266 265 264 262 260 259 257 258 260 263 265 267 269 268 266 266 259 242 229 225 225 225 228 236 244 251 257 263
282 291 290 272 261 249 240 240 243 244 252 261 252 240 244 247 240 237 241 237 232 235 239 238 243 251 256 262 268 270 276 279 279 282 288 288 291 297 299 301 301 301 301 300 297 295 292 290 289 288 288 288 285 280 274 269 265 263 264 267 267 263 261 259 257 258 260 263 267 267 267 267 263 253 246 238 226 221 224 228 233 241 248 256 262 267
286 297 308 301 277 259 247 244 250 256 258 266 266 249 244 245 231 219 221 216 211 215 228 236 245 257 259 262 268 270 275 280 281 284 291 294 295 298 301 303 303 302 302 300 298 295 291 289 287 285 284 284 283 280 275 269 265 262 262 265 267 264 262 260 259 258 258 261 265 266 265 264 253 244 246 241 227 219 223 228 234 246 255 262 267 272
303 307 311 308 290 277 267 259 261 266 268 271 273 262 253 258 248 227 225 216 207 214 239 253 260 270 269 270 274 275 276 279 282 287 294 297 298 299 301 303 303 301 301 299 297 294 291 288 286 283 281 279 278 278 277 273 267 263 262 262 263 263 262 260 257 256 256 258 261 261 262 258 248 248 252 242 225 221 230 231 237 251 259 265 270 273
309 314 311 303 298 295 287 276 273 275 271 268 268 268 271 281 276 249 245 246 250 266 279 280 282 284 282 281 282 282 283 285 287 290 295 298 300 301 302 302 301 298 296 293 293 293 290 287 284 282 280 277 274 273 277 277 271 265 262 260 259 261 261 257 254 253 253 255 257 256 255 251 245 245 243 231 221 224 231 230 238 252 261 268 274 277
299 305 303 299 296 289 279 277 279 270 264 266 270 284 296 301 290 277 275 277 283 290 293 292 292 293 293 291 290 290 291 292 293 295 296 298 301 302 302 301 297 294 290 288 288 290 290 288 286 284 281 278 274 271 274 277 274 266 261 258 258 261 260 256 253 251 250 253 254 249 245 244 241 234 227 219 216 220 224 229 243 255 265 275 280 283
287 287 289 288 286 278 266 260 252 240 265 291 299 299 298 297 293 291 291 291 293 296 298 298 297 297 296 294 293 293 292 293 295 295 296 298 300 300 299 297 293 289 286 285 287 289 290 289 289 287 283 278 275 272 273 275 273 266 262 261 262 261 259 256 253 250 250 251 248 242 240 238 229 218 212 209 208 213 219 231 250 264 276 282 283 283
281 274 276 276 274 274 271 268 268 268 276 288 294 292 291 293 297 298 297 297 299 299 298 298 298 297 295 294 294 293 293 294 294 294 295 297 298 297 295 293 290 287 285 286 289 291 291 289 287 285 282 278 274 272 271 271 270 266 263 262 260 258 255 253 250 248 247 243 240 239 237 228 213 201 201 203 202 209 223 240 260 275 281 279 277 279
276 277 279 278 276 277 277 277 278 277 276 277 277 276 282 290 294 295 294 294 295 295 294 295 294 293 293 293 292 292 292 292 292 291 293 294 294 294 292 290 287 287 288 291 292 292 291 288 286 284 281 277 274 273 270 269 267 264 263 261 257 252 250 246 243 243 240 236 236 233 221 206 195 192 197 201 204 215 232 251 269 276 274 273 276 281
281 283 282 280 279 277 275 277 279 278 273 270 269 274 282 286 284 284 286 286 287 288 288 289 289 289 289 289 290 290 291 290 290 290 289 289 290 290 290 287 286 288 291 293 293 293 292 289 286 284 281 278 276 274 271 269 266 263 260 257 253 249 246 240 237 236 231 229 230 222 200 184 184 190 194 200 210 222 238 255 264 266 269 276 283 288
286 283 280 280 280 278 278 281 282 279 277 277 279 281 282 279 277 280 282 283 284 285 285 286 287 287 288 288 288 288 288 289 289 288 287 286 287 288 287 286 286 289 292 293 294 294 292 290 289 286 283 281 279 276 275 275 271 264 258 252 247 244 238 229 226 228 226 222 219 209 190 179 185 192 196 204 213 222 235 248 257 268 278 287 293 297
290 284 285 286 284 281 282 285 287 286 281 279 279 279 277 274 276 280 283 286 288 289 289 288 287 287 288 290 289 287 287 287 288 288 287 286 286 286 286 287 288 290 292 294 295 294 293 292 291 287 283 279 277 275 276 276 270 264 259 248 233 225 220 218 219 219 213 204 196 187 180 184 190 193 198 203 208 218 236 255 273 287 294 298 302 307
294 288 290 290 286 285 285 288 290 290 285 279 276 276 275 276 278 281 285 289 290 289 288 286 284 284 285 287 287 287 286 285 287 287 287 285 285 286 287 289 290 291 293 295 294 294 292 289 284 278 269 264 263 263 260 253 253 257 255 243 222 214 213 214 210 199 188 181 176 174 178 185 188 189 192 196 206 231 264 288 297 300 303 306 311 316
293 291 291 289 287 286 287 286 283 281 281 280 279 279 279 280 282 285 288 289 287 286 285 285 283 283 281 281 283 286 286 286 287 288 287 285 284 286 289 290 291 292 294 295 293 291 287 280 270 260 249 239 240 243 219 174 146 161 189 197 195 186 179 178 176 171 167 167 168 170 174 177 179 182 186 194 231 275 293 300 301 304 308 313 318 323
Height
3101 3101 3100 3100 3101 3102 3103 3103 3104 3104 3104 3104 3105 3105 3105 3105 3106 3106 3106 3105 3105 3104 3103 3103 3103 3104 3105 3106 3107 3107 3108 3107 3106 3105 3106 3108 3109 3110 3111 3112 3113 3114 3116 3117 3117 3118 3119 3120 3120 3121 3122 3123 3124 3124 3125 3125 3125 3124 3124 3124 3124 3124 3123 3123 3122 3121 3120 3120 3118 3118 3118 3119 3119 3120 3120 3121 3121 3121 3121 3121 3121 3122 3122 3122 3122 3123
3100 3099 3099 3100 3101 3102 3102 3103 3103 3103 3104 3104 3104 3105 3105 3105 3105 3105 3106 3105 3105 3103 3102 3102 3102 3103 3104 3105 3105 3106 3106 3106 3106 3105 3105 3106 3108 3109 3110 3111 3112 3113 3114 3115 3116 3117 3118 3118 3119 3119 3120 3122 3122 3123 3123 3124 3124 3123 3123 3123 3123 3123 3123 3122 3122 3121 3120 3119 3118 3117 3117 3118 3118 3119 3119 3119 3120 3120 3120 3120 3120 3120 3121 3121 3121 3121
3100 3099 3099 3100 3101 3101 3102 3102 3102 3103 3103 3104 3104 3104 3105 3104 3105 3105 3105 3105 3105 3104 3103 3102 3102 3102 3103 3104 3105 3105 3105 3105 3105 3105 3105 3106 3106 3107 3108 3110 3110 3111 3112 3113 3114 3115 3116 3116 3117 3118 3119 3120 3121 3122 3122 3122 3123 3122 3122 3122 3122 3122 3122 3122 3121 3120 3119 3119 3119 3118 3117 3117 3117 3117 3118 3118 3119 3119 3119 3119 3119 3119 3119 3120 3120 3120
3099 3099 3099 3100 3101 3101 3101 3102 3102 3102 3102 3103 3103 3104 3104 3104 3104 3104 3104 3104 3104 3104 3103 3102 3102 3102 3102 3103 3103 3104 3103 3104 3104 3104 3105 3105 3105 3106 3106 3107 3108 3109 3110 3111 3112 3113 3114 3114 3115 3116 3118 3119 3119 3120 3121 3121 3121 3121 3121 3121 3121 3121 3121 3121 3120 3120 3119 3119 3119 3118 3117 3116 3116 3116 3117 3117 3117 3118 3118 3118 3118 3118 3119 3119 3119 3119
3098 3098 3099 3099 3100 3100 3101 3101 3101 3101 3101 3102 3102 3103 3103 3103 3103 3102 3102 3103 3103 3103 3102 3102 3101 3100 3101 3102 3102 3102 3102 3102 3103 3103 3104 3103 3103 3104 3104 3104 3105 3106 3107 3109 3110 3111 3111 3112 3114 3115 3116 3117 3118 3119 3119 3120 3120 3119 3119 3119 3120 3120 3120 3120 3119 3119 3119 3118 3118 3118 3117 3116 3116 3116 3116 3116 3117 3117 3117 3118 3118 3118 3118 3118 3118 3118
3097 3097 3098 3098 3098 3099 3099 3100 3100 3100 3101 3101 3101 3102 3102 3102 3101 3101 3101 3101 3101 3101 3101 3101 3100 3098 3098 3100 3100 3101 3100 3101 3101 3101 3101 3101 3101 3102 3101 3101 3102 3102 3104 3106 3107 3109 3110 3111 3112 3113 3114 3115 3116 3117 3118 3118 3118 3118 3117 3118 3118 3119 3119 3118 3118 3118 3118 3118 3118 3118 3117 3116 3116 3116 3116 3116 3117 3117 3118 3118 3118 3118 3118 3118 3118 3118
3096 3097 3097 3097 3097 3097 3098 3098 3099 3100 3100 3100 3100 3101 3101 3100 3100 3100 3100 3100 3100 3100 3099 3100 3100 3098 3096 3097 3099 3099 3098 3098 3099 3099 3099 3099 3099 3099 3099 3098 3099 3099 3101 3103 3105 3106 3108 3109 3110 3111 3112 3114 3115 3115 3116 3116 3116 3116 3116 3116 3117 3117 3118 3117 3117 3117 3117 3117 3117 3117 3117 3116 3116 3116 3116 3116 3117 3117 3117 3118 3118 3118 3118 3118 3118 3118
3096 3096 3096 3096 3096 3096 3096 3096 3097 3098 3099 3099 3100 3100 3100 3099 3099 3099 3099 3099 3099 3099 3099 3099 3099 3097 3095 3096 3097 3097 3096 3096 3096 3095 3096 3096 3096 3096 3095 3096 3096 3096 3098 3100 3102 3104 3106 3107 3108 3109 3111 3112 3113 3114 3114 3115 3115 3115 3115 3115 3116 3116 3116 3116 3116 3115 3115 3116 3116 3117 3117 3116 3116 3116 3116 3116 3117 3117 3117 3117 3117 3117 3117 3118 3118 3118
3095 3096 3096 3095 3094 3094 3095 3095 3096 3097 3098 3098 3099 3099 3098 3098 3098 3098 3098 3098 3098 3098 3098 3097 3097 3097 3095 3094 3095 3094 3092 3093 3092 3092 3092 3092 3092 3092 3092 3093 3094 3094 3095 3097 3100 3102 3104 3106 3107 3108 3109 3110 3111 3112 3113 3113 3114 3114 3114 3114 3115 3115 3115 3115 3115 3114 3114 3115 3115 3116 3116 3116 3116 3116 3116 3116 3117 3117 3117 3117 3117 3116 3117 3117 3117 3117
3094 3095 3095 3094 3093 3093 3094 3095 3096 3097 3097 3097 3097 3097 3097 3097 3097 3097 3097 3097 3097 3096 3096 3096 3096 3096 3095 3092 3091 3091 3091 3091 3090 3089 3089 3089 3089 3089 3089 3090 3091 3092 3093 3095 3097 3099 3102 3104 3105 3106 3107 3108 3109 3111 3111 3112 3113 3113 3113 3113 3113 3114 3114 3114 3114 3113 3113 3113 3114 3115 3115 3115 3115 3115 3116 3116 3117 3117 3117 3117 3116 3116 3116 3116 3116 3116
3092 3093 3093 3093 3093 3093 3094 3095 3095 3095 3096 3096 3096 3096 3096 3096 3096 3096 3096 3095 3096 3095 3094 3094 3094 3095 3094 3090 3089 3090 3090 3089 3088 3087 3086 3086 3086 3086 3086 3087 3088 3089 3091 3093 3095 3097 3100 3102 3103 3105 3106 3107 3108 3109 3110 3110 3111 3111 3111 3112 3112 3113 3113 3112 3112 3112 3112 3112 3113 3114 3114 3114 3115 3115 3115 3116 3116 3116 3116 3116 3116 3115 3115 3115 3115 3115
3091 3091 3092 3092 3092 3093 3093 3093 3093 3094 3094 3094 3094 3094 3094 3094 3094 3094 3094 3094 3094 3093 3092 3092 3092 3093 3093 3089 3088 3089 3089 3088 3087 3085 3084 3084 3083 3083 3083 3084 3085 3086 3088 3091 3093 3095 3098 3100 3102 3103 3104 3105 3106 3107 3108 3109 3110 3110 3111 3111 3111 3111 3111 3111 3111 3111 3111 3111 3112 3113 3113 3113 3114 3114 3114 3115 3115 3115 3115 3115 3115 3114 3114 3114 3114 3114
3089 3089 3090 3091 3091 3091 3092 3092 3092 3092 3092 3092 3092 3093 3093 3093 3094 3094 3093 3093 3093 3092 3091 3091 3091 3091 3090 3088 3088 3088 3087 3086 3085 3084 3083 3082 3082 3082 3081 3081 3081 3083 3086 3088 3091 3093 3096 3098 3100 3101 3103 3103 3104 3105 3106 3107 3108 3109 3109 3109 3110 3110 3110 3111 3110 3110 3110 3110 3111 3111 3112 3113 3113 3113 3114 3114 3114 3114 3113 3113 3113 3113 3113 3113 3113 3113
3088 3088 3088 3089 3089 3089 3090 3090 3090 3090 3090 3090 3090 3091 3091 3093 3095 3095 3094 3094 3092 3090 3089 3090 3090 3089 3087 3087 3088 3086 3085 3085 3084 3083 3082 3081 3081 3081 3080 3080 3080 3081 3083 3086 3089 3092 3094 3097 3098 3100 3101 3102 3103 3103 3104 3106 3107 3107 3108 3108 3108 3109 3109 3110 3110 3109 3109 3109 3110 3110 3111 3111 3112 3112 3112 3113 3113 3113 3112 3112 3112 3112 3112 3112 3112 3111
3087 3087 3087 3087 3087 3087 3087 3088 3088 3089 3089 3089 3088 3089 3089 3090 3091 3092 3091 3091 3090 3088 3088 3089 3089 3087 3086 3087 3086 3085 3084 3084 3083 3083 3082 3081 3081 3081 3081 3080 3080 3080 3081 3084 3087 3090 3093 3095 3097 3098 3099 3101 3101 3102 3103 3104 3105 3105 3106 3106 3107 3108 3108 3108 3109 3109 3109 3109 3109 3109 3110 3110 3110 3110 3111 3111 3111 3111 3111 3111 3111 3111 3111 3111 3110 3110
3086 3086 3085 3086 3086 3086 3086 3086 3087 3087 3087 3087 3087 3087 3087 3087 3088 3088 3088 3088 3087 3088 3088 3088 3087 3086 3087 3087 3085 3084 3084 3083 3083 3082 3082 3081 3081 3081 3081 3080 3080 3079 3080 3082 3085 3088 3091 3093 3095 3097 3098 3099 3100 3101 3101 3102 3103 3104 3105 3105 3105 3106 3107 3107 3108 3108 3108 3108 3108 3108 3109 3109 3109 3109 3109 3109 3110 3110 3109 3109 3109 3109 3109 3109 3109 3109
3084 3084 3084 3084 3084 3085 3085 3085 3085 3085 3085 3085 3086 3086 3086 3086 3086 3086 3086 3086 3087 3088 3087 3086 3086 3086 3087 3087 3085 3084 3083 3083 3082 3081 3081 3081 3081 3081 3081 3080 3080 3079 3080 3081 3083 3085 3088 3090 3093 3094 3096 3097 3098 3099 3100 3101 3102 3102 3103 3103 3104 3105 3105 3106 3107 3107 3107 3107 3107 3107 3108 3108 3108 3108 3108 3108 3108 3108 3108 3108 3108 3108 3108 3108 3107 3107
3083 3082 3082 3083 3083 3083 3083 3083 3083 3083 3083 3083 3084 3085 3085 3085 3085 3084 3085 3086 3088 3089 3086 3084 3084 3084 3085 3086 3085 3084 3083 3082 3081 3080 3080 3080 3080 3081 3080 3080 3080 3080 3080 3081 3082 3084 3085 3087 3089 3091 3093 3094 3095 3097 3098 3099 3100 3101 3102 3102 3103 3103 3104 3105 3105 3106 3106 3106 3106 3106 3106 3107 3107 3107 3107 3107 3107 3107 3106 3106 3106 3106 3106 3106 3106 3105
3082 3081 3081 3081 3082 3082 3082 3082 3082 3082 3081 3081 3082 3083 3083 3083 3083 3083 3084 3085 3086 3088 3086 3083 3082 3082 3083 3084 3083 3083 3082 3081 3081 3080 3080 3080 3080 3080 3080 3081 3081 3080 3080 3081 3081 3083 3084 3085 3087 3088 3089 3091 3093 3095 3096 3097 3098 3099 3100 3101 3101 3102 3102 3103 3104 3104 3105 3105 3105 3105 3105 3106 3106 3106 3106 3106 3105 3105 3105 3105 3105 3104 3104 3104 3103 3103
3081 3080 3079 3079 3080 3080 3080 3080 3080 3080 3080 3080 3081 3081 3081 3082 3082 3082 3083 3083 3083 3085 3085 3083 3081 3081 3081 3081 3081 3081 3081 3081 3081 3080 3079 3079 3079 3079 3080 3080 3081 3080 3080 3080 3081 3082 3083 3084 3085 3086 3087 3088 3090 3091 3093 3094 3095 3096 3098 3098 3099 3100 3100 3101 3102 3102 3103 3103 3103 3103 3104 3104 3104 3104 3104 3104 3104 3104 3103 3103 3103 3102 3102 3101 3101 3101
3080 3079 3078 3078 3078 3078 3078 3078 3078 3078 3079 3079 3079 3080 3080 3081 3082 3082 3082 3082 3082 3083 3084 3083 3081 3080 3080 3080 3080 3080 3079 3079 3080 3080 3079 3079 3078 3079 3079 3079 3079 3080 3080 3080 3081 3081 3082 3083 3083 3084 3085 3086 3087 3087 3089 3091 3093 3094 3095 3095 3097 3098 3098 3099 3099 3100 3101 3101 3101 3102 3102 3102 3102 3103 3103 3102 3102 3102 3102 3101 3101 3100 3100 3099 3099 3098
3078 3078 3077 3077 3077 3076 3076 3075 3076 3076 3077 3077 3077 3078 3079 3079 3080 3081 3081 3081 3080 3081 3081 3082 3081 3079 3079 3079 3079 3078 3078 3078 3078 3078 3078 3079 3078 3078 3078 3078 3078 3078 3078 3078 3079 3080 3081 3082 3082 3083 3084 3084 3084 3084 3085 3087 3089 3090 3091 3092 3094 3095 3095 3096 3097 3098 3098 3098 3099 3100 3100 3100 3100 3100 3100 3100 3100 3100 3100 3099 3099 3098 3098 3097 3096 3095
3077 3076 3075 3075 3075 3075 3074 3074 3074 3074 3074 3075 3075 3076 3077 3077 3077 3079 3079 3078 3079 3078 3078 3080 3080 3078 3078 3077 3077 3077 3076 3076 3076 3076 3077 3078 3078 3078 3078 3077 3077 3077 3077 3077 3078 3079 3080 3081 3082 3082 3083 3083 3083 3083 3083 3084 3085 3086 3087 3088 3090 3091 3092 3093 3094 3095 3095 3095 3096 3097 3098 3098 3098 3098 3098 3098 3098 3098 3098 3097 3097 3096 3095 3095 3094 3093
3075 3074 3073 3073 3073 3073 3073 3073 3073 3073 3073 3073 3073 3073 3074 3074 3075 3075 3075 3076 3076 3076 3076 3078 3077 3075 3076 3075 3074 3074 3074 3074 3074 3075 3075 3075 3076 3077 3077 3076 3076 3075 3075 3075 3076 3077 3078 3079 3079 3080 3080 3081 3081 3081 3082 3082 3083 3083 3083 3084 3085 3086 3088 3090 3090 3091 3092 3092 3093 3094 3095 3095 3095 3095 3096 3096 3096 3096 3096 3095 3095 3094 3093 3092 3091 3090
3073 3072 3072 3072 3072 3072 3073 3072 3072 3072 3072 3072 3071 3072 3072 3072 3073 3073 3073 3073 3073 3073 3074 3075 3072 3071 3073 3072 3071 3072 3072 3072 3072 3072 3072 3073 3073 3074 3074 3074 3074 3073 3073 3073 3074 3075 3075 3076 3076 3077 3077 3078 3078 3078 3079 3080 3080 3081 3081 3081 3081 3081 3083 3085 3086 3087 3088 3089 3090 3091 3091 3091 3092 3093 3093 3093 3093 3093 3093 3092 3092 3091 3090 3089 3088 3088
3071 3071 3070 3070 3071 3071 3071 3071 3070 3070 3070 3070 3070 3070 3070 3071 3071 3071 3072 3071 3071 3070 3071 3070 3068 3069 3071 3069 3069 3070 3070 3070 3070 3070 3070 3070 3071 3071 3071 3071 3071 3070 3070 3070 3071 3071 3072 3073 3073 3074 3074 3075 3075 3076 3076 3076 3077 3077 3078 3078 3077 3077 3078 3079 3081 3082 3084 3085 3086 3087 3087 3087 3088 3089 3090 3091 3091 3090 3089 3089 3088 3087 3086 3086 3085 3085
3069 3068 3068 3068 3067 3067 3067 3067 3067 3067 3067 3067 3068 3067 3068 3069 3069 3069 3070 3069 3069 3069 3067 3065 3067 3068 3068 3067 3068 3069 3068 3067 3068 3067 3067 3068 3068 3068 3068 3067 3067 3067 3067 3067 3068 3068 3069 3069 3069 3070 3070 3071 3072 3072 3073 3073 3073 3073 3074 3074 3074 3074 3074 3074 3075 3076 3079 3081 3082 3083 3083 3083 3084 3084 3085 3086 3086 3086 3085 3084 3084 3083 3082 3082 3082 3082
3067 3066 3065 3065 3064 3064 3064 3064 3065 3064 3064 3064 3065 3065 3065 3066 3066 3066 3066 3065 3067 3067 3062 3062 3065 3065 3063 3064 3065 3065 3065 3064 3065 3065 3065 3065 3065 3064 3064 3064 3064 3064 3064 3064 3064 3065 3065 3065 3065 3065 3065 3066 3067 3067 3068 3068 3068 3068 3069 3069 3069 3069 3069 3070 3070 3071 3073 3075 3076 3078 3078 3078 3078 3079 3079 3080 3080 3080 3080 3079 3079 3079 3078 3078 3078 3078
3064 3063 3063 3063 3062 3062 3062 3062 3062 3062 3061 3061 3062 3062 3063 3063 3063 3063 3062 3063 3064 3062 3058 3059 3062 3061 3059 3060 3061 3061 3062 3061 3062 3062 3062 3061 3061 3061 3061 3061 3061 3061 3061 3061 3061 3061 3061 3061 3061 3061 3061 3062 3062 3062 3063 3064 3064 3064 3064 3064 3064 3065 3065 3065 3065 3066 3068 3069 3070 3072 3072 3072 3073 3074 3073 3073 3073 3074 3074 3074 3074 3074 3074 3075 3075 3074
3062 3062 3061 3060 3059 3059 3059 3059 3059 3059 3058 3057 3058 3058 3059 3060 3060 3060 3060 3060 3060 3058 3056 3057 3057 3057 3057 3056 3056 3057 3058 3058 3059 3059 3058 3058 3058 3058 3058 3058 3058 3057 3057 3057 3057 3057 3057 3057 3057 3057 3057 3058 3058 3057 3058 3058 3059 3060 3060 3060 3060 3060 3060 3060 3060 3061 3062 3063 3065 3066 3067 3067 3067 3067 3067 3067 3067 3067 3068 3068 3069 3069 3069 3070 3070 3070
3060 3060 3059 3058 3057 3055 3056 3056 3056 3056 3055 3053 3053 3054 3055 3056 3057 3057 3057 3057 3056 3055 3054 3054 3053 3052 3053 3053 3052 3053 3054 3054 3055 3055 3055 3055 3055 3055 3055 3054 3054 3054 3053 3053 3053 3053 3053 3053 3053 3053 3053 3053 3053 3053 3053 3053 3054 3055 3055 3055 3055 3055 3055 3055 3055 3055 3056 3058 3059 3060 3061 3062 3060 3058 3060 3062 3062 3062 3063 3063 3064 3065 3065 3066 3066 3066
3058 3057 3056 3057 3055 3051 3052 3054 3054 3053 3052 3049 3047 3049 3051 3052 3052 3053 3053 3053 3052 3051 3051 3051 3049 3049 3050 3050 3050 3050 3050 3051 3051 3052 3052 3052 3052 3052 3051 3051 3050 3050 3049 3049 3049 3049 3049 3049 3049 3049 3049 3049 3049 3049 3048 3048 3049 3049 3049 3049 3050 3050 3051 3051 3051 3051 3051 3052 3053 3054 3055 3056 3055 3054 3056 3057 3057 3059 3060 3060 3061 3061 3061 3062 3062 3062
3054 3053 3052 3054 3052 3046 3047 3051 3051 3052 3050 3043 3040 3044 3047 3048 3048 3048 3049 3049 3049 3048 3048 3047 3046 3046 3047 3046 3046 3047 3047 3047 3048 3048 3048 3048 3048 3048 3047 3047 3046 3045 3045 3044 3044 3044 3044 3044 3044 3044 3044 3044 3044 3044 3044 3044 3044 3044 3044 3044 3044 3045 3045 3046 3046 3047 3047 3047 3048 3049 3050 3051 3051 3051 3053 3054 3054 3055 3056 3056 3057 3057 3058 3058 3057 3058
3049 3049 3049 3050 3048 3043 3044 3047 3048 3048 3043 3036 3036 3040 3043 3044 3044 3044 3044 3044 3045 3044 3044 3044 3044 3044 3044 3044 3043 3044 3044 3044 3044 3044 3044 3044 3044 3043 3043 3042 3041 3041 3040 3040 3039 3039 3039 3039 3039 3039 3038 3039 3039 3039 3039 3039 3039 3039 3039 3038 3038 3039 3040 3040 3041 3041 3042 3042 3043 3044 3046 3047 3048 3047 3048 3048 3049 3050 3051 3051 3052 3052 3052 3052 3052 3053
3045 3045 3045 3045 3045 3041 3041 3045 3046 3041 3035 3033 3036 3038 3039 3039 3040 3040 3041 3041 3041 3041 3041 3041 3041 3041 3041 3040 3040 3040 3040 3040 3040 3040 3040 3039 3039 3039 3038 3038 3037 3037 3036 3036 3035 3035 3034 3034 3033 3033 3033 3033 3033 3033 3034 3034 3033 3033 3033 3033 3032 3033 3034 3035 3035 3036 3036 3037 3038 3040 3040 3042 3043 3042 3042 3041 3042 3044 3045 3045 3046 3046 3047 3048 3048 3049
3042 3042 3042 3041 3041 3040 3039 3041 3040 3034 3031 3033 3036 3035 3035 3036 3037 3037 3038 3038 3038 3038 3038 3038 3037 3037 3037 3037 3037 3036 3036 3036 3036 3036 3036 3036 3035 3035 3034 3034 3033 3033 3032 3032 3031 3030 3030 3029 3028 3028 3028 3028 3028 3028 3028 3028 3028 3027 3027 3027 3027 3026 3027 3029 3030 3031 3031 3032 3033 3035 3036 3037 3038 3038 3038 3038 3038 3040 3039 3039 3040 3041 3043 3044 3044 3044
3040 3040 3039 3038 3038 3037 3036 3035 3034 3031 3030 3032 3032 3032 3033 3034 3034 3035 3034 3034 3034 3034 3034 3033 3034 3034 3034 3034 3033 3033 3032 3032 3032 3033 3033 3032 3032 3031 3030 3030 3029 3028 3028 3027 3026 3025 3025 3024 3023 3022 3022 3022 3022 3023 3023 3023 3022 3021 3020 3021 3021 3020 3021 3022 3023 3025 3025 3026 3027 3029 3031 3033 3034 3035 3034 3033 3032 3033 3033 3034 3036 3037 3039 3040 3040 3040
3039 3038 3037 3036 3034 3034 3034 3033 3032 3031 3029 3028 3029 3030 3030 3031 3031 3032 3031 3030 3030 3030 3029 3030 3030 3030 3030 3030 3030 3029 3028 3027 3028 3029 3030 3029 3028 3027 3026 3026 3025 3024 3023 3023 3022 3021 3020 3018 3017 3017 3016 3016 3016 3017 3017 3017 3016 3015 3014 3015 3015 3015 3015 3016 3017 3019 3020 3021 3022 3023 3025 3027 3028 3029 3028 3027 3027 3028 3029 3030 3032 3033 3035 3036 3036 3036
3037 3036 3035 3034 3032 3032 3032 3031 3029 3029 3027 3026 3027 3028 3027 3027 3028 3028 3027 3027 3026 3026 3026 3027 3027 3027 3027 3026 3026 3026 3025 3023 3023 3025 3026 3025 3025 3024 3023 3022 3021 3020 3019 3018 3017 3015 3014 3013 3012 3011 3011 3010 3010 3011 3011 3010 3010 3009 3009 3010 3010 3009 3010 3010 3012 3014 3015 3016 3017 3017 3019 3021 3022 3022 3022 3022 3022 3024 3026 3027 3028 3029 3031 3032 3033 3033
3034 3034 3033 3032 3031 3031 3030 3029 3027 3026 3025 3025 3025 3025 3025 3025 3024 3024 3025 3023 3023 3024 3024 3024 3024 3024 3023 3023 3022 3022 3022 3020 3019 3020 3021 3021 3021 3020 3019 3017 3016 3015 3014 3013 3011 3009 3008 3007 3005 3005 3005 3004 3004 3005 3004 3004 3003 3003 3003 3004 3004 3004 3005 3006 3007 3009 3010 3011 3011 3012 3014 3016 3017 3017 3018 3018 3018 3020 3022 3024 3025 3026 3028 3029 3030 3030
3031 3031 3031 3030 3029 3029 3028 3027 3026 3025 3024 3023 3023 3023 3023 3023 3023 3023 3022 3021 3021 3021 3021 3021 3021 3021 3020 3020 3019 3018 3018 3018 3016 3016 3017 3017 3016 3015 3015 3013 3012 3010 3009 3008 3006 3004 3002 3000 2999 2998 2998 2998 2998 2998 2998 2997 2996 2996 2997 2998 2998 2999 3000 3001 3002 3003 3004 3005 3006 3008 3010 3012 3013 3014 3014 3016 3017 3018 3019 3020 3022 3024 3026 3027 3027 3027
3030 3029 3028 3028 3028 3027 3027 3025 3024 3023 3022 3021 3021 3021 3020 3021 3022 3021 3020 3020 3019 3019 3019 3019 3019 3018 3018 3017 3016 3015 3015 3014 3013 3012 3012 3012 3011 3010 3009 3008 3007 3006 3004 3002 3001 2998 2996 2994 2993 2992 2992 2992 2992 2991 2991 2990 2989 2990 2991 2991 2993 2995 2995 2996 2996 2998 2999 3001 3002 3004 3006 3008 3009 3010 3010 3012 3014 3015 3016 3017 3019 3021 3022 3023 3024 3024
3029 3028 3027 3026 3026 3025 3024 3024 3023 3021 3020 3019 3019 3019 3019 3019 3019 3018 3018 3018 3018 3017 3017 3017 3016 3016 3015 3014 3013 3012 3011 3010 3010 3009 3008 3007 3006 3005 3004 3002 3001 3000 2999 2997 2996 2993 2990 2988 2987 2987 2986 2985 2985 2985 2985 2983 2982 2983 2984 2985 2988 2990 2990 2990 2991 2993 2995 2996 2998 3000 3002 3003 3004 3005 3006 3008 3011 3012 3013 3015 3016 3018 3019 3020 3020 3020
3028 3027 3026 3025 3024 3023 3022 3021 3021 3019 3018 3018 3017 3017 3016 3016 3016 3015 3015 3015 3015 3014 3014 3013 3013 3013 3011 3010 3009 3008 3007 3006 3005 3004 3002 3001 3001 3000 2998 2997 2995 2994 2993 2992 2990 2988 2986 2983 2982 2981 2980 2979 2978 2978 2978 2977 2976 2976 2977 2979 2982 2984 2983 2984 2986 2988 2990 2992 2994 2995 2996 2997 2999 3000 3003 3005 3008 3009 3011 3012 3014 3015 3017 3017 3017 3017
3025 3025 3024 3022 3021 3020 3019 3018 3018 3018 3017 3016 3016 3014 3013 3013 3012 3012 3012 3011 3011 3011 3010 3009 3008 3008 3007 3006 3004 3003 3002 3001 3000 2999 2997 2995 2995 2994 2993 2991 2990 2989 2988 2986 2985 2983 2981 2978 2976 2974 2973 2972 2972 2971 2970 2970 2969 2969 2970 2973 2976 2977 2977 2978 2981 2983 2985 2988 2990 2991 2992 2994 2996 2998 3000 3003 3005 3007 3009 3011 3012 3013 3014 3014 3014 3014
3023 3022 3021 3019 3017 3016 3015 3014 3014 3015 3015 3014 3013 3012 3011 3010 3010 3009 3009 3008 3008 3007 3006 3005 3004 3003 3003 3002 2999 2998 2997 2996 2994 2993 2992 2990 2989 2988 2987 2986 2985 2984 2983 2981 2979 2977 2975 2972 2970 2968 2966 2966 2966 2965 2963 2962 2962 2962 2963 2966 2968 2969 2970 2972 2975 2978 2981 2984 2987 2988 2988 2990 2993 2995 2998 3001 3003 3005 3008 3009 3011 3011 3011 3011 3011 3010
3020 3019 3017 3015 3014 3013 3011 3010 3011 3012 3011 3011 3010 3009 3008 3008 3007 3006 3006 3005 3004 3003 3002 3002 3000 2999 2998 2997 2995 2993 2992 2991 2989 2988 2987 2985 2984 2983 2982 2981 2980 2979 2977 2976 2973 2971 2968 2966 2964 2962 2960 2959 2959 2958 2956 2955 2955 2955 2956 2959 2960 2961 2963 2967 2970 2973 2977 2981 2984 2986 2987 2988 2990 2993 2996 2999 3002 3004 3007 3008 3009 3009 3009 3008 3007 3007
3017 3015 3013 3011 3011 3009 3007 3007 3008 3008 3007 3006 3006 3006 3005 3004 3003 3002 3002 3001 3000 2999 2999 2998 2997 2995 2994 2993 2991 2988 2986 2986 2985 2983 2981 2980 2979 2978 2977 2976 2974 2973 2972 2970 2968 2966 2962 2960 2958 2956 2955 2954 2953 2951 2950 2948 2947 2947 2949 2951 2953 2955 2958 2962 2966 2969 2973 2977 2980 2983 2986 2989 2991 2993 2995 2998 3001 3004 3006 3007 3007 3007 3006 3005 3004 3003
3013 3011 3010 3008 3006 3004 3003 3004 3005 3003 3002 3003 3003 3002 3001 3000 2999 2998 2997 2996 2996 2995 2994 2993 2992 2991 2989 2988 2986 2984 2981 2981 2980 2978 2976 2975 2974 2973 2972 2971 2969 2968 2967 2965 2963 2960 2957 2954 2952 2951 2950 2950 2949 2947 2946 2945 2943 2942 2943 2946 2948 2950 2953 2957 2961 2965 2969 2972 2976 2980 2985 2988 2990 2992 2995 2998 3000 3002 3004 3005 3004 3003 3002 3002 3001 3000
3009 3008 3007 3005 3002 3000 3000 3002 3001 2998 2996 2997 2999 2998 2997 2996 2995 2994 2993 2993 2992 2991 2989 2988 2987 2986 2985 2983 2982 2979 2977 2976 2975 2973 2971 2970 2969 2968 2967 2965 2964 2963 2962 2960 2958 2955 2952 2950 2949 2948 2948 2947 2947 2946 2945 2944 2942 2940 2940 2942 2944 2947 2950 2953 2958 2962 2966 2970 2975 2980 2983 2986 2989 2992 2994 2997 2999 3001 3001 3001 3001 3000 2999 2999 2998 2998
3006 3005 3004 3002 2999 2997 2997 2999 2998 2994 2991 2992 2993 2993 2992 2992 2991 2989 2989 2988 2987 2986 2985 2983 2982 2981 2980 2979 2978 2976 2974 2972 2971 2969 2967 2966 2965 2963 2962 2961 2959 2958 2957 2955 2953 2951 2949 2947 2946 2946 2946 2946 2945 2945 2945 2944 2943 2941 2941 2942 2944 2947 2950 2954 2958 2963 2968 2973 2977 2980 2983 2986 2989 2991 2994 2996 2998 2998 2999 2999 2998 2998 2997 2996 2996 2995